COSMOS 2251 DEB

Satellite information

Favourite Embed

Satellite Type and Status

DEBRISIN ORBIT

Key statistics

Satellite COSMOS 2251 DEB at a glance.

Uptime

11868

Days in orbit

Revolutions

≈ 14.5

Per day

Orbit

LEO

Low Earth Orbit

Inclination

73.9

Latest

Satellite identification and parameters

Extended collection of information and parameters for COSMOS 2251 DEB.

Object identification

Identified? True

Debris? True

Object name: COSMOS 2251 DEB

International designator: 1993-036AFV

Object number (NORAD): 34997

Object ID (CCSDS): 34997

Country: COMMONWEALTH OF INDEPENDENT STATES (CIS)

Current information (Y/N): Y

RCS size: SMALL

Orbital parameters

Period: 99.62 minutes

Inclination: 73.8812 deg

SMA: 7118.541 km

Apoapsis: 810.099 km

Periapsis: 670.714 km

RAAN: 317.0047 deg

Eccentricy: 0.00979027

Argument of periapsis: 292.5764 deg

Mean anomaly: 66.5057 deg

Mean motion: 14.45493879 rev/day

Mean motion (dot): 0.00010999 rev/day2

B* drag term: 0.002944294 1/REarth

Two-line elements (TLE)

Creation date: Dec. 10, 2025, 10:40 a.m.

Reference frame: TEME

Reference center: EARTH

Epoch: Dec. 9, 2025, 3:42 p.m. UTC

TLE line 0: 0 COSMOS 2251 DEB

TLE line 1: 1 34997U 93036AFV 25343.65441682 .00010999 00000-0 29443-2 0 9998

TLE line 2: 2 34997 73.8812 317.0047 0097903 292.5764 66.5057 14.45493879707027

Live tracking on map

Real-time ground track for satellite COSMOS 2251 DEB.

In-orbit conjunctions

A list of the most updated potential collisions computed for object COSMOS 2251 DEB.

Target Orbit TCA Probability of collision Miss distance Type
TECHSAT 1B SSO 2025-10-10 07:58:55 0.0004080614 238.0 (m) PAYLOAD
SL-16 DEB LEO 2025-07-28 05:49:24 0.0001955318 484.0 (m) DEBRIS
NOAA 16 DEB SSO 2024-11-10 06:03:41 0.0003759598 186.0 (m) DEBRIS

Associated space launch

Military communications satellite. Destroyed in a collision with Iridium 33.

COSMOS 2251 DEB was lifted into orbit during the mission ‘Kosmos-3M | Strela-2M 51’, on board a Kosmos-3M space rocket.

The launch took place on June 16, 1993, 4:17 a.m. from 132/1 (132L).

For more information about the launch, click the button.

Launch to space Kosmos-3M | Strela-2M 51
Kosmos-3M | Strela-2M 51

Agency: N/A

Status: Launch Successful

Launch date: June 16, 1993, 4:17 a.m. UTC

Rocket: Kosmos-3M

Launch pad: 132/1 (132L)

Location: Plesetsk Cosmodrome, Russian Federation

...

Latest news about this satellite

There are no fresh news available about this satellite. Check back as we update our databases every day.


Newsletter sign-up

Weekly statistics, charts and insights to help you stay on top of the space industry.